Regional Weather Roundup
Issued by NWS

Home | Current Version | Previous Version | Graphics & Text | Print | Product List | Glossary On
Versions: 1 2 3 4 5 6 7 8 9 10 11 12 13 14 15 16 17 18 19 20 21 22 23 24 25 26 27 28 29 30 31 32 33 34 35 36 37 38 39 40 41 42 43 44 45 46 47 48 49 50
000
ASUS43 KIND 281809
RWRIN

WEATHER ROUNDUP FOR INDIANA
NATIONAL WEATHER SERVICE INDIANAPOLIS IN
100 PM EST SUN DEC 28 2014

NOTE: "FAIR" INDICATES FEW OR NO CLOUDS BELOW 12,000 FEET WITH NO
SIGNIFICANT WEATHER AND/OR OBSTRUCTIONS TO VISIBILITY.

* - STATION DOES NOT REPORT WEATHER SUCH AS PRECIPITATION OR FOG.

+ - STATION NOT QUALITY CONTROLLED BY THE NATIONAL WEATHER SERVICE.
    USE DATA WITH CAUTION...ESPECIALLY DEWPOINT AND RELATIVE
    HUMIDITY OBSERVATIONS.

INZ001>003-010>013-019-020-281900-
NORTHWEST INDIANA

CITY           SKY/WX    TMP DP  RH WIND       PRES   REMARKS
GARY /AIRPORT/ PTSUNNY   30  19  64 SW7       30.20F WCI  23
KNOX *+        PTSUNNY   31  23  71 W6        30.16F WCI  25
LA PORTE +     PTSUNNY   34  26  71 SW5       30.15F WCI  30
6HR MIN TEMP:  32; 6HR MAX TEMP:  34;

MICHIGAN CITY+ PTSUNNY   32  21  64 SW6       30.16F WCI  26
MONTICELLO +   CLOUDY    29  24  82 W7        30.17F WCI  22
VALPARAISO     PTSUNNY   32  24  72 W5        30.16F WCI  27
6HR MIN TEMP:  28; 6HR MAX TEMP:  32;


$$

LMZ046-743>745-281900-
SOUTHERN LAKE MICHIGAN

STATION/POSITION TIME  TEMP WIND        PRES
                       AIR  DIR/SP/G
                 (UTC) (F)  (DEG/KT/KT) (MB)
MICHIGAN CITY    1800   29  230/ 10/ 12   N/A

$$

INZ004-005-014>016-021>024-281900-
NORTH CENTRAL INDIANA

CITY           SKY/WX    TMP DP  RH WIND       PRES   REMARKS
ELKHART        PTSUNNY   34  21  60 W7        30.14  WCI  28
GOSHEN         CLOUDY    33  25  72 NW8       30.13F WCI  26
6HR MIN TEMP:  32; 6HR MAX TEMP:  34;

LOGANSPORT +   CLOUDY    30  27  86 W5        30.17S WCI  25
PERU/GRISSOM   CLOUDY    31  31 100 W7        30.15F WCI  24
6HR MIN TEMP:  30; 6HR MAX TEMP:  31;

ROCHESTER +    CLOUDY    34  30  86 W7        30.15F WCI  28
SOUTH BEND     PTSUNNY   34  24  67 W5        30.14F WCI  30
6HR MIN TEMP:  31; 6HR MAX TEMP:  34;

WARSAW +       CLOUDY    32  27  80 W8        30.13F WCI  25

$$

INZ006>009-017-018-025>027-281900-
NORTHEAST INDIANA

CITY           SKY/WX    TMP DP  RH WIND       PRES   REMARKS
AUBURN +       CLOUDY    36  27  69 W8        30.12F
FORT WAYNE     CLOUDY    34  26  72 NW9       30.13F WCI  27
6HR MIN TEMP:  33; 6HR MAX TEMP:  34;

HUNTINGTON +   CLOUDY    32  24  72 W5        30.13F WCI  28
6HR MIN TEMP:  32; 6HR MAX TEMP:  32;


$$

INZ028-029-035-036-043>045-051>053-281900-
WEST CENTRAL INDIANA

CITY           SKY/WX    TMP DP  RH WIND       PRES   REMARKS
CRAWFORDSVL +  CLOUDY    28  19  69 W5        30.16  WCI  23
LAFAYETTE      CLOUDY    28  23  81 NW6       30.18F WCI  22
6HR MIN TEMP:  27; 6HR MAX TEMP:  29;

TERRE HAUTE    CLOUDY    31  24  75 NW6       30.19F WCI  25
6HR MIN TEMP:  30; 6HR MAX TEMP:  31;


$$

INZ030>032-037>040-046>048-054>057-064-065-281900-
CENTRAL INDIANA

CITY           SKY/WX    TMP DP  RH WIND       PRES   REMARKS
CP ATTERBURY + CLOUDY    32  28  86 MISG      30.18S
COLUMBUS       CLOUDY    32  27  80 NW5       30.18F WCI  27
FRANKFORT +    CLOUDY    29  25  84 W5        30.17F WCI  24
INDIANAPOLIS   CLOUDY    30  26  85 W7        30.16F WCI  23
6HR MIN TEMP:  29; 6HR MAX TEMP:  30;

-EAGLE CREEK   CLOUDY    30  26  85 NW7       30.16F WCI  23
6HR MIN TEMP:  29; 6HR MAX TEMP:  31;

KOKOMO *+      CLOUDY    30  25  80 W8        30.16F WCI  23
MARION +       CLOUDY    31  28  86 W8        30.15F WCI  24
MT COMFORT *+  CLOUDY    32  27  80 W6        30.16F WCI  26
SHELBYVILLE    CLOUDY    34  27  75 NW7       30.15F WCI  28
6HR MIN TEMP:  33; 6HR MAX TEMP:  34;

ZIONSVILLE +   CLOUDY    30  26  83 NW5       30.16F WCI  25
6HR MIN TEMP:  30; 6HR MAX TEMP:  31;


$$

INZ033-034-041-042-049-050-058-059-281900-
EAST CENTRAL INDIANA

CITY           SKY/WX    TMP DP  RH WIND       PRES   REMARKS
MUNCIE         CLOUDY    33  28  81 NW9       30.13F WCI  25
6HR MIN TEMP:  32; 6HR MAX TEMP:  33;


$$

INZ060-061-067>069-081>083-085>088-281900-
SOUTHWEST INDIANA

CITY           SKY/WX    TMP DP  RH WIND       PRES   REMARKS
EVANSVILLE     CLOUDY    36  29  75 NW8       30.21F
6HR MIN TEMP:  35; 6HR MAX TEMP:  36;

HUNTINGBURG *+ CLOUDY    34  27  75 N6        30.19F WCI  29
6HR MIN TEMP:  34; 6HR MAX TEMP:  34;

WASHINGTON +   CLOUDY    33  27  79 N6        30.18F WCI  27
6HR MIN TEMP:  32; 6HR MAX TEMP:  33;


$$

INZ062-063-066-070>080-084-089>092-281900-
SOUTH CENTRAL AND SOUTHEAST INDIANA

CITY           SKY/WX    TMP DP  RH WIND       PRES   REMARKS
BLOOMINGTON    CLOUDY    32  27  81 CALM      30.17F
6HR MIN TEMP:  31; 6HR MAX TEMP:  33;


$$



USA.gov is the U.S. government's official web portal to all federal, state and local government web resources and services.